Regional Weather Roundup
Issued by NWS

Home | Current Version | Previous Version | Graphics & Text | Print | Product List | Glossary On
Versions: 1 2 3 4 5 6 7 8 9 10 11 12 13 14 15 16 17 18 19 20 21 22 23 24 25 26 27 28 29 30 31 32 33 34 35 36 37 38 39 40 41 42 43 44 45 46 47 48 49 50
170
ASUS45 KSLC 100310
RWRUT

UTAH REGIONAL WEATHER ROUNDUP
NATIONAL WEATHER SERVICE SALT LAKE CITY UT
800 PM MST SAT DEC 09 2017

UTZ001>011-023>025-100400-

NORTHERN UTAH

CITY           SKY/WX    TMP DP  RH WIND       PRES   REMARKS
BRIGHAM CITY   CLEAR     26  21  82 NW3       30.64R
HILL AFB       CLEAR     26  17  67 E12       30.60R WCI  16
LOGAN          CLOUDY    23  18  81 CALM      30.65R
OGDEN          CLEAR     26  18  71 S5        30.61R WCI  20
SALT LAKE CITY PTCLDY    30  26  85 CALM      30.62R FOG
TOOELE VALLEY  PTCLDY    19  18  93 SW5       30.63R WCI  13
WENDOVER       PTCLDY    20  12  71 W3        30.63S
HEBER CITY       N/A     18  12  79 CALM      30.58R
WEST JORDAN    CLEAR     27  20  73 CALM      30.61S

$$

UTZ011>015-024>027-100400-

CENTRAL/NORTHEAST UTAH

CITY           SKY/WX    TMP DP  RH WIND       PRES   REMARKS
PROVO AIRPORT  PTCLDY    22  19  89 S5        30.62R WCI  16
MOAB/CANYONLAN PTCLDY    26   6  42 SW3       30.52R
DELTA          PTCLDY    28  12  50 CALM      30.60R
PRICE          PTCLDY    23   3  42 NE5       30.52R WCI  17
RICHFIELD      CLEAR     18   7  62 CALM      30.60R
ROOSEVELT      CLOUDY    19   9  63 W5        30.58R WCI  13
VERNAL         CLOUDY    20   7  57 W3        30.55R

$$

UTZ013>016-019>022-027-100400-

SOUTHERN UTAH

CITY           SKY/WX    TMP DP  RH WIND       PRES   REMARKS
BRYCE CANYON   CLEAR     21  -6  30 W10       30.56R WCI  10
CEDAR CITY     PTCLDY    26  10  50 SW6       30.55R WCI  19
MILFORD        PTCLDY    20   9  62 NE6       30.58R WCI  12
ST GEORGE      PTCLDY    44   9  23 CALM      30.46R
HANKSVILLE     PTCLDY    32   7  34 NE3       30.55R
KANAB          CLEAR     39  -4  16 N13       30.51R WCI  32
BLANDING         N/A     36   4  26 CALM      30.56R

$$

REGIONAL REPORTS     COLORADO/ARIZONA

CITY           SKY/WX    TMP DP  RH WIND       PRES   REMARKS
CRAIG, CO      CLOUDY    13   7  77 CALM      30.54S
GRAND JUNCTION CLOUDY    30   8  39 E6        30.52R WCI  24
RIFLE, CO      CLOUDY    24   8  50 S5        30.55R WCI  18
MONTROSE, CO   CLOUDY    25   5  42 SE8       30.56R WCI  16
CORTEZ, CO     CLOUDY    21   1  41 E12       30.50R WCI   9
COLORADO CITY    N/A     28   3  34 SE7       30.49S HAZE    WCI  21
PAGE, AZ       PTCLDY    40  14  34 CALM      30.49R
GRAND CANYON   PTCLDY    35   1  23 NE8       30.50R WCI  29
KINGMAN, AZ    CLEAR     44   7  21 E12       30.37R
FLAGSTAFF, AZ  PTCLDY    25  -1  32 CALM      30.50R

$$

REGIONAL REPORTS    NEVADA/IDAHO/WYOMING

CITY           SKY/WX    TMP DP  RH WIND       PRES   REMARKS
LAS VEGAS, NV  PTCLDY    54  14  20 SW3       30.36R
ELY, NY        PTCLDY    19   4  51 S12       30.58R WCI   7
ELKO, NV       PTCLDY    23  17  78 E3        30.57R
POCATELLO, ID  FOG       11   9  92 CALM      30.65S VSB 1/4
BURLEY, ID     CLOUDY    21  19  92 NE6       30.63S FOG     WCI  13
EVANSTON, WY   CLOUDY    31  13  47 S7        30.56S WCI  24
ROCK SPRINGS,  CLOUDY    33   9  36 SW13      30.50R WCI  24

$$




USA.gov is the U.S. government's official web portal to all federal, state and local government web resources and services.